GFSMA_850_dewp_096.txt.gz
Dewpoint
10 7 8 9 9 9 9 9 9 7 3 0 5 3 6 6 7 6 6 -3 -2 -1 1 -1 -6 -7 -7 -6 -7 -9 -10 -13 -15 -17 -12 -14 -15 -22 -24 -26 -28 -28 -30
5 5 8 8 9 9 9 9 8 5 1 2 -1 -2 4 5 6 6 6 3 -1 0 2 1 -4 -6 -6 -6 -7 -8 -11 -12 -15 -15 -11 -15 -17 -20 -23 -25 -27 -29 -29
3 1 3 8 7 8 8 8 5 5 2 1 -2 -3 -1 4 5 6 6 6 3 -0 -4 -5 -5 -6 -6 -5 -6 -8 -9 -11 -15 -17 -16 -19 -20 -21 -23 -24 -25 -26 -26
3 1 4 7 6 6 5 4 5 3 3 2 1 -0 0 -1 4 7 6 6 6 6 -2 -4 -5 -5 -6 -5 -6 -7 -7 -10 -15 -16 -18 -19 -19 -20 -21 -21 -22 -22 -21
3 -0 5 6 2 3 4 4 4 4 5 3 2 1 1 1 1 5 6 6 6 6 5 -1 -5 -5 -6 -5 -5 -5 -6 -8 -11 -12 -13 -14 -15 -16 -17 -18 -18 -18 -19
5 2 5 3 3 4 4 5 5 5 5 4 2 2 2 2 2 4 6 4 5 5 4 5 -2 -3 -5 -5 -4 -4 -5 -6 -7 -8 -9 -9 -9 -10 -11 -14 -16 -15 -15
5 2 2 2 3 3 4 5 5 5 6 5 2 2 1 -2 -1 -1 -0 2 -0 -1 2 2 3 1 -1 -4 -4 -4 -4 -3 -3 -4 -5 -5 -4 -4 -6 -7 -12 -13 -13
4 2 2 2 4 5 4 5 6 6 6 6 4 2 1 1 -1 -1 -0 0 3 2 1 0 2 2 1 1 -1 -3 -3 -1 0 -0 -1 -1 1 1 -1 -2 -3 -4 -6
5 2 3 3 3 3 4 5 5 6 6 6 5 3 3 3 3 2 -0 -0 0 0 2 2 1 2 2 1 1 -0 -3 -3 -2 3 3 3 3 2 1 -0 -1 -1 -2
8 7 4 4 4 4 4 4 5 3 6 6 5 5 4 4 4 4 4 3 1 1 1 2 2 2 1 1 1 0 0 -2 -2 -2 0 2 2 2 1 1 1 1 1
5 7 5 4 7 5 4 2 3 4 5 6 6 6 5 4 3 4 5 4 3 1 2 1 0 1 1 1 0 1 -1 -2 -2 -2 -2 -2 -2 -2 1 1 1 1 1
7 6 5 3 5 5 3 3 2 3 5 6 7 8 7 7 6 5 5 5 6 5 3 3 2 2 3 2 1 1 0 -0 -1 -2 -2 -2 -3 -4 -5 -0 1 -0 -0
6 4 4 4 4 3 3 3 3 5 6 7 7 8 8 8 8 7 7 6 7 7 5 3 3 4 4 2 2 1 4 1 -3 -3 -1 -4 -5 -5 -6 -8 -8 -5 -2
4 3 3 3 2 3 4 5 6 6 6 5 5 5 5 5 6 6 8 8 6 6 5 4 4 5 3 4 3 4 3 1 -2 -1 1 -3 -4 -7 -12 -15 -17 -16 -16
4 2 2 3 4 5 6 6 7 8 8 6 6 4 4 4 4 4 6 8 6 6 5 5 6 4 4 4 4 3 3 -1 -1 1 -1 -4 -8 -12 -15 -15 -14 -13 -12
6 6 7 7 7 7 7 7 8 8 8 8 7 7 6 5 6 7 8 7 8 5 5 6 5 4 4 5 4 3 -1 -1 1 -1 -4 -6 -8 -10 -10 -9 -9 -11 -9
6 7 7 7 8 7 7 7 7 7 7 6 5 3 6 6 7 8 8 8 8 7 5 6 5 5 4 4 2 1 -1 -0 -2 -3 -4 -5 -5 -6 -7 -9 -11 -12 -13
6 6 7 7 7 7 7 7 5 3 3 3 4 5 6 9 8 7 7 7 8 7 7 6 7 5 4 4 3 2 1 -2 -2 -1 -2 -3 -4 -7 -11 -12 -13 -14 -13
7 7 8 8 7 7 6 5 4 2 3 7 7 8 7 9 7 7 8 7 7 6 7 6 6 5 4 4 3 1 -1 -1 -1 -1 -2 -3 -6 -11 -13 -15 -17 -18 -19
4 4 4 4 5 6 7 8 7 7 7 8 8 8 8 9 6 8 7 7 7 7 7 6 6 4 4 2 2 0 -0 -0 -1 -2 -4 -6 -8 -15 -18 -22 -30 -35 -35
4 5 7 8 8 8 8 7 8 8 9 9 9 8 8 7 7 7 6 6 5 5 4 4 3 2 2 2 0 -0 -1 -2 -3 -3 -4 -6 -13 -22 -32 -31 -23 -32 -32
7 6 8 8 7 8 9 9 9 9 9 8 7 7 7 6 6 6 5 5 4 4 3 3 1 1 0 -0 -1 -1 -3 -4 -4 -6 -7 -7 -12 -16 -29 -26 -20 -20 -28
8 8 9 9 9 9 9 9 9 8 8 7 7 6 5 5 4 4 4 3 2 2 2 1 0 -0 -1 -2 -3 -4 -5 -6 -7 -7 -8 -8 -8 -8 -12 -14 -15 -20 -22
9 9 9 9 9 8 8 8 8 7 7 6 5 5 4 3 2 1 1 1 -0 -0 -1 -1 -2 -3 -4 -5 -6 -6 -7 -8 -8 -9 -8 -8 -8 -7 -7 -8 -8 -8 -10
8 8 8 7 7 7 7 7 6 5 4 4 3 2 0 -0 -1 -2 -2 -3 -3 -3 -4 -4 -4 -4 -4 -5 -7 -9 -8 -8 -8 -7 -7 -7 -7 -7 -8 -8 -7 -7 -8
7 7 6 5 5 4 4 4 3 2 2 1 -1 -2 -3 -3 -3 -3 -3 -3 -3 -4 -4 -4 -5 -6 -7 -8 -8 -9 -9 -9 -9 -9 -8 -8 -7 -7 -7 -8 -8 -8 -8

GFSMA_850_dewp_099.txt.gz
Dewpoint
8 10 10 8 10 10 7 8 8 8 8 7 7 7 7 6 6 7 6 -3 1 -1 -2 -3 -5 -8 -7 -7 -9 -10 -12 -14 -16 -16 -18 -21 -23 -25 -26 -28 -29 -30 -30
9 9 10 9 9 10 9 9 8 8 8 6 7 6 6 6 6 6 7 1 0 1 0 1 0 -3 -6 -7 -8 -9 -10 -12 -16 -16 -20 -22 -22 -23 -25 -26 -27 -28 -29
10 8 9 9 8 9 9 8 9 8 7 5 6 5 6 6 6 6 7 7 4 2 1 3 4 -4 -6 -6 -7 -8 -9 -10 -14 -16 -19 -21 -23 -23 -23 -24 -25 -26 -26
10 8 9 9 9 9 9 8 8 7 5 4 3 3 4 5 6 6 6 7 7 6 1 -0 -3 -5 -5 -6 -6 -7 -7 -9 -12 -14 -16 -18 -18 -19 -20 -20 -22 -22 -23
10 9 8 6 9 9 8 8 7 5 4 3 3 3 3 3 5 6 6 6 6 6 6 3 -4 -4 -5 -6 -5 -5 -6 -7 -10 -11 -12 -12 -14 -14 -15 -16 -18 -20 -21
8 8 3 5 8 8 8 7 6 6 5 5 3 3 3 3 4 5 6 6 6 6 6 6 4 -4 -4 -5 -5 -5 -5 -6 -7 -8 -9 -10 -10 -10 -10 -11 -13 -16 -18
9 4 3 8 8 7 7 6 6 6 6 5 4 3 4 4 4 4 6 6 6 6 6 5 5 3 2 -4 -4 -4 -4 -4 -4 -5 -6 -6 -6 -7 -6 -5 -6 -8 -13
8 7 7 7 6 6 6 6 7 7 6 6 4 4 4 3 3 -1 2 4 5 5 5 4 4 4 2 2 -1 -3 -4 -3 -3 -3 -3 -3 -4 -3 -2 -2 -3 -3 -4
6 7 5 7 5 6 6 6 6 7 7 6 5 5 4 4 3 3 1 -1 1 3 4 3 3 4 3 2 2 1 -0 -3 -2 0 1 -1 -2 -0 0 0 -1 -1 -2
6 4 7 6 4 6 7 5 4 5 7 7 6 6 5 5 6 5 3 3 2 3 3 3 3 3 3 3 2 2 1 1 -2 -2 -0 0 1 2 3 2 1 1 1
7 7 7 5 3 6 8 5 4 5 5 6 7 6 5 5 5 5 6 5 4 4 3 3 3 3 3 3 2 1 1 1 1 -1 -2 -2 1 2 3 2 2 1 2
9 6 6 5 4 5 5 4 4 4 4 5 6 7 7 7 7 6 6 6 5 5 4 4 5 5 4 2 1 1 2 2 1 1 -1 -2 -2 -2 -1 1 2 2 2
9 8 7 6 5 6 7 5 4 5 4 3 4 3 6 7 7 7 7 7 7 7 6 6 7 7 7 5 2 1 2 3 1 0 -0 -0 -2 -2 -2 -2 -2 -0 2
6 6 7 7 5 4 4 4 4 4 5 6 6 6 6 7 8 7 6 7 7 6 6 5 4 5 6 6 4 3 4 3 1 1 1 3 -1 -2 -2 -2 -4 -5 -5
6 5 5 5 5 5 4 4 4 5 5 5 5 7 7 6 7 8 8 6 5 7 6 7 7 6 6 6 6 6 5 4 3 2 3 3 -1 -3 0 -2 -4 -5 -9
8 7 6 6 4 4 4 4 3 5 5 6 7 7 7 8 7 7 7 6 8 7 7 6 6 7 6 6 5 5 6 5 4 4 4 3 -2 -2 0 -3 -5 -10 -14
7 7 6 6 6 7 6 7 6 5 7 7 7 7 7 7 8 7 6 7 7 7 7 7 7 7 6 6 6 6 5 5 4 4 3 1 -3 0 -2 -5 -8 -11 -11
7 7 7 7 7 7 7 7 7 7 7 7 7 8 8 8 7 5 6 8 8 8 7 6 7 7 6 6 6 6 5 4 3 3 1 -2 -1 -2 -5 -5 -6 -6 -8
8 8 8 7 7 7 7 8 8 7 7 8 8 8 7 5 6 9 9 8 8 7 7 6 6 7 6 5 5 5 4 3 0 -0 0 -1 -1 -2 -3 -3 -3 -4 -7
8 8 8 8 8 8 8 8 8 8 8 8 7 7 8 9 9 8 8 7 7 7 6 6 5 5 5 5 5 4 3 1 0 -0 -1 -1 -0 -1 -1 -1 -3 -6 -7
9 9 8 8 8 8 8 8 8 7 8 8 9 9 9 8 8 7 7 6 6 5 5 5 5 4 4 4 3 3 1 0 -0 -1 -1 -1 -1 -1 -2 -2 -3 -6 -18
9 9 8 8 8 8 8 8 9 9 8 9 8 8 7 7 6 6 6 5 5 4 4 3 3 3 2 1 1 1 -0 -1 -2 -2 -3 -3 -4 -4 -3 -4 -4 -5 -9
8 8 9 9 9 9 9 9 9 9 8 8 7 7 6 5 4 4 3 3 2 2 2 1 0 -0 -1 -2 -2 -3 -3 -4 -4 -4 -4 -4 -4 -4 -4 -5 -12 -14 -13
8 8 8 8 8 9 9 8 8 7 7 6 5 4 3 3 1 0 -0 -1 -1 -2 -2 -2 -3 -3 -3 -3 -4 -4 -4 -4 -4 -4 -5 -6 -6 -6 -7 -7 -7 -8 -8
8 8 8 8 7 7 6 6 5 4 4 3 2 1 -0 -1 -2 -3 -3 -3 -3 -4 -3 -3 -3 -4 -4 -4 -5 -5 -6 -7 -7 -7 -7 -7 -7 -7 -7 -8 -7 -7 -7
8 6 6 5 4 4 3 3 2 2 1 0 -1 -2 -3 -3 -4 -4 -4 -4 -4 -5 -6 -6 -6 -7 -7 -8 -8 -8 -9 -9 -9 -9 -8 -8 -8 -8 -8 -7 -8 -7 -6

GFSMA_850_dewp_102.txt.gz
Dewpoint
8 9 8 7 5 5 4 3 2 6 6 5 7 6 6 6 6 6 -4 -7 -6 -4 -0 -6 -8 -8 -8 -8 -10 -11 -13 -14 -16 -17 -19 -22 -24 -26 -28 -29 -29 -29 -29
8 9 8 9 7 6 5 4 7 8 8 7 7 6 6 6 6 6 -2 -4 -3 -2 -2 -2 -8 -7 -7 -7 -8 -10 -11 -12 -14 -17 -20 -22 -23 -25 -26 -26 -27 -27 -27
8 9 9 8 8 7 6 5 8 9 8 7 6 7 6 6 6 6 5 0 -4 -3 -0 -1 -6 -6 -7 -6 -7 -8 -9 -10 -12 -13 -18 -20 -20 -21 -21 -22 -23 -24 -25
8 9 8 7 7 10 8 7 9 8 7 6 6 6 6 6 7 7 7 4 3 -4 -2 -3 -5 -5 -6 -6 -6 -6 -7 -7 -10 -12 -14 -15 -16 -17 -17 -18 -19 -20 -21
9 9 7 8 9 9 9 9 9 8 6 5 5 4 5 6 6 7 7 6 6 5 2 -1 -5 -4 -4 -5 -5 -5 -5 -6 -8 -10 -10 -12 -13 -13 -14 -15 -16 -17 -19
9 9 7 9 9 9 8 9 8 7 5 3 3 3 3 4 4 6 6 6 6 6 5 3 3 1 -3 -4 -5 -5 -4 -5 -6 -7 -7 -8 -9 -9 -10 -10 -11 -12 -14
10 9 8 9 9 8 8 9 8 6 5 4 3 3 3 3 3 5 5 6 6 6 6 6 3 4 3 -2 -3 -4 -4 -3 -4 -5 -5 -5 -6 -7 -7 -7 -7 -6 -7
9 9 9 8 7 9 8 8 7 5 6 5 4 3 4 4 3 3 4 4 6 6 5 5 4 3 2 2 2 1 -2 -3 -2 -3 -3 -3 -4 -5 -5 -5 -4 -3 -4
9 9 9 6 6 4 8 8 6 6 6 6 5 4 5 4 4 3 2 0 1 3 3 3 3 3 3 3 3 2 2 1 -2 -2 -2 -2 -2 -2 -3 -3 -2 -1 -1
10 8 7 4 3 4 7 6 6 7 7 6 5 5 5 6 5 5 4 4 3 1 0 1 1 2 3 2 2 2 2 2 2 1 -1 -1 -1 -1 -1 -2 -1 0 0
10 9 7 5 4 7 6 7 6 6 6 7 6 5 6 5 5 5 6 5 5 5 4 3 3 3 3 3 3 3 3 3 2 2 1 1 -0 -0 -1 -1 0 2 3
10 8 8 4 7 7 8 5 6 5 5 7 6 5 5 5 4 4 5 6 6 6 6 5 5 5 4 4 4 6 6 4 4 2 1 2 1 -0 -0 1 1 3 3
9 7 6 4 6 7 6 5 3 5 6 5 5 5 6 4 5 6 7 7 7 7 7 6 6 6 4 3 4 5 5 7 7 5 3 2 2 1 -0 0 1 1 1
7 6 6 5 6 7 5 3 7 6 4 4 3 3 3 5 5 7 7 7 8 7 6 6 4 4 4 4 5 5 6 6 7 7 4 3 3 3 1 -1 -1 -1 -1
8 6 5 5 6 6 3 6 7 6 5 5 4 4 5 5 6 6 7 7 7 8 7 6 6 6 6 6 7 7 7 6 6 7 6 6 5 4 2 0 -0 -1 -2
8 9 7 6 5 5 6 5 5 4 4 5 5 4 4 5 5 6 7 6 6 7 8 5 4 4 7 7 7 7 7 7 6 6 6 6 6 5 4 1 1 1 -1
6 7 7 7 7 7 6 4 5 5 4 4 4 5 5 6 7 6 6 7 7 7 8 6 6 7 8 7 7 7 7 7 6 6 6 6 6 6 5 3 2 0 -2
7 8 7 6 6 5 5 5 4 4 6 7 6 7 6 7 8 7 8 8 8 8 8 8 8 7 7 7 6 6 6 6 6 5 6 6 6 5 4 3 2 -0 -1
8 8 8 7 7 7 6 6 6 6 6 7 8 8 8 8 8 9 9 9 8 7 8 8 7 6 6 6 6 5 5 5 5 5 5 4 4 2 2 2 1 -1 -0
8 8 7 7 7 7 7 7 7 7 7 7 8 9 9 9 9 8 8 8 7 7 6 6 5 5 5 5 5 5 4 4 5 4 3 2 2 1 1 -0 -1 -0 -2
8 8 8 8 8 8 8 8 9 9 9 8 9 9 9 9 9 8 8 7 6 6 5 4 4 4 3 3 2 2 2 2 2 2 1 1 0 0 -0 -1 -1 -1 -1
8 8 8 9 9 8 8 8 8 7 8 8 8 9 8 7 6 7 6 5 4 3 3 3 2 1 1 0 -0 -1 -1 -1 -1 -1 -1 -1 -1 -2 -2 -1 -1 -2 -2
8 8 8 8 8 7 7 8 8 8 8 8 8 7 5 5 4 3 3 1 1 -0 -0 -1 -1 -2 -3 -3 -3 -3 -3 -3 -4 -4 -4 -4 -4 -3 -3 -3 -3 -3 -3
8 8 8 8 8 8 8 8 8 8 8 6 4 3 3 2 1 -0 -1 -3 -3 -4 -3 -4 -3 -4 -4 -4 -4 -5 -5 -5 -6 -6 -6 -6 -7 -7 -6 -6 -6 -6 -6
8 8 8 8 7 6 6 6 5 4 3 3 1 1 -0 -1 -2 -3 -4 -4 -4 -4 -5 -6 -7 -7 -8 -8 -8 -8 -8 -8 -8 -9 -8 -8 -8 -8 -8 -7 -7 -6 -7
8 7 7 5 4 4 2 2 2 2 1 -0 -1 -3 -3 -3 -4 -6 -7 -8 -9 -9 -10 -10 -9 -9 -9 -9 -9 -9 -10 -10 -10 -10 -9 -9 -10 -10 -11 -11 -10 -7 -6

GFSMA_850_dewp_105.txt.gz
Dewpoint
8 11 4 -2 -2 -1 -1 -4 -5 -3 5 5 5 6 6 6 6 6 -2 -7 -6 -8 -5 -9 -9 -9 -9 -10 -11 -12 -13 -14 -15 -15 -17 -19 -22 -25 -27 -28 -28 -28 -28
11 9 3 -0 1 2 1 -2 -4 -2 6 6 6 6 6 6 6 6 1 -6 -7 -4 -6 -9 -9 -8 -8 -8 -9 -10 -12 -13 -13 -16 -19 -21 -23 -24 -25 -26 -26 -27 -27
10 8 2 2 3 3 2 -0 1 3 4 6 7 7 7 6 6 5 4 -5 -6 -6 -7 -8 -8 -8 -7 -7 -7 -8 -9 -10 -11 -13 -17 -19 -19 -20 -20 -21 -21 -22 -23
8 9 4 3 4 4 3 5 7 8 7 6 5 6 7 6 6 6 5 5 -0 -6 -6 -6 -6 -6 -6 -6 -6 -6 -6 -7 -8 -10 -12 -15 -15 -14 -15 -15 -16 -18 -20
8 9 8 6 5 5 4 6 9 8 8 7 6 6 6 6 7 7 6 6 5 3 -0 -6 -6 -5 -5 -5 -5 -5 -5 -5 -5 -7 -9 -10 -11 -11 -11 -13 -13 -14 -15
7 7 8 8 6 6 6 8 9 8 8 6 6 6 6 6 6 6 7 7 6 6 4 2 0 -1 -2 -3 -4 -4 -4 -3 -3 -4 -6 -7 -7 -8 -8 -9 -10 -10 -11
7 7 8 7 6 7 7 7 9 8 7 5 4 4 4 5 5 6 6 6 7 6 4 3 1 2 2 3 2 -2 -2 -3 -2 -3 -4 -5 -4 -4 -6 -6 -7 -7 -7
8 8 8 7 8 7 7 8 9 8 6 4 3 3 3 3 3 4 6 6 6 7 5 4 3 2 1 2 2 1 0 -0 -1 -2 -2 -2 -3 -3 -3 -5 -5 -5 -5
9 9 9 8 8 8 9 9 8 7 5 4 4 3 4 4 4 3 4 4 5 6 6 5 3 3 1 1 1 0 1 1 1 1 1 0 -1 -1 -2 -2 -3 -4 -4
9 8 9 9 9 9 9 9 8 7 5 5 5 3 4 4 4 4 4 3 2 2 2 3 2 1 1 2 3 3 3 2 1 2 2 2 1 1 0 -0 -1 -2 -2
9 10 9 9 9 9 8 7 5 6 6 6 6 5 4 5 6 6 5 5 4 4 4 4 4 3 3 3 5 5 4 4 4 4 5 4 3 2 1 1 1 -1 -1
10 10 9 9 9 8 7 7 7 7 6 6 5 6 5 5 5 5 5 4 4 5 5 6 6 6 6 5 4 4 3 3 4 4 5 5 4 3 2 2 1 1 1
10 10 9 9 6 5 4 5 5 7 6 5 7 3 5 5 5 6 6 5 5 5 6 6 6 5 5 4 4 4 5 6 5 5 6 6 5 5 5 2 2 2 2
10 10 9 9 8 5 5 6 7 7 4 6 6 5 6 5 3 2 3 5 7 7 7 6 5 4 5 4 4 5 6 6 6 6 6 7 6 5 5 5 3 3 4
10 10 9 8 7 6 6 8 7 5 5 6 6 6 6 5 4 4 4 5 6 8 7 6 6 5 5 5 5 6 6 7 7 7 7 7 7 6 6 6 5 4 4
9 10 8 7 6 7 7 7 6 5 6 5 6 6 5 5 4 4 4 4 5 6 8 7 7 6 6 7 6 7 8 7 7 7 6 6 6 6 6 6 6 5 5
8 8 8 7 6 6 6 6 6 5 4 7 6 5 5 4 4 3 4 5 7 7 8 8 8 7 7 8 7 8 7 6 6 6 6 5 5 5 6 6 5 5 5
8 9 7 6 6 6 5 6 6 4 6 6 4 5 4 4 6 7 7 7 7 8 8 9 8 8 8 8 7 6 5 5 5 5 5 4 4 4 4 5 5 5 5
7 7 8 8 8 6 6 5 6 6 6 6 5 5 5 8 8 8 8 8 8 9 8 8 8 7 6 6 5 5 5 4 5 5 4 4 4 4 4 4 4 4 3
5 6 7 7 7 7 7 7 6 6 6 6 6 8 8 8 8 9 8 8 9 7 8 7 7 6 5 4 4 3 3 3 3 3 3 2 2 1 1 1 2 2 2
6 7 8 8 7 8 8 8 8 8 8 8 8 8 8 8 9 9 8 7 6 6 5 4 3 2 2 2 1 0 -0 -1 -1 -2 -2 -1 -1 -1 -1 -1 -1 -1 -1
9 8 8 8 8 8 8 8 8 8 8 9 9 8 8 8 7 4 3 2 4 2 1 -0 -0 -1 -1 -3 -3 -3 -3 -4 -4 -4 -4 -4 -4 -4 -4 -3 -3 -3 -3
8 8 7 8 8 8 8 8 8 9 8 8 8 7 5 3 1 1 1 0 -1 -2 -3 -3 -3 -4 -4 -4 -5 -5 -6 -6 -6 -6 -6 -7 -7 -7 -7 -7 -7 -6 -6
8 8 9 9 9 9 9 8 8 8 8 7 5 2 0 0 -0 -0 -1 -2 -2 -4 -5 -5 -6 -7 -8 -8 -9 -9 -9 -10 -10 -10 -11 -10 -9 -9 -9 -9 -9 -9 -7
9 8 8 8 7 7 7 7 7 6 4 2 1 -0 -0 -1 -1 -3 -6 -7 -8 -9 -9 -10 -10 -10 -10 -9 -9 -10 -11 -11 -12 -13 -11 -10 -11 -13 -14 -14 -14 -13 -12
8 7 7 5 4 4 2 2 2 2 1 0 -1 -2 -3 -5 -9 -10 -11 -12 -12 -12 -13 -15 -16 -14 -11 -10 -10 -11 -12 -14 -14 -14 -13 -15 -14 -14 -14 -14 -15 -18 -18